DW6368 Weather Reports


Display with metric or nautical units.
time (UTC)temp
F
wind
direction
speed
MPH
gust
MPH
rain 1hr
in
rain 24hr
in
rain mn
in
humidity
%
barometer
mb
20260902110324 60 8 0.0 1.0 0.00 0.00 0.00 95 1014.4
20260902105306 60 9 0.0 1.0 0.00 0.00 0.00 95 1014.5
20260902104303 61 9 0.0 0.0 0.00 0.00 0.00 95 1014.4
20260902103303 61 9 0.0 1.0 0.00 0.00 0.00 94 1014.4
20260902102307 61 93 0.0 1.0 0.00 0.00 0.00 95 1014.5
20260902101302 61 320 0.0 1.0 0.00 0.00 0.00 95 1014.5
20260902100302 61 16 0.0 1.0 0.00 0.00 0.00 95 1014.5
20260902095324 61 9 0.0 0.0 0.00 0.00 0.00 94 1014.6
20260902094303 61 9 0.0 1.0 0.00 0.00 0.00 94 1014.6
20260902093303 61 9 0.0 1.0 0.00 0.00 0.00 93 1014.7
20260902092305 61 51 0.0 0.0 0.00 0.00 0.00 93 1014.7
20260902091303 61 51 0.0 1.0 0.00 0.00 0.00 93 1014.8
20260902090303 62 51 0.0 1.0 0.00 0.00 0.00 93 1014.8
20260902085306 62 220 0.0 1.0 0.00 0.00 0.00 93 1014.8
20260902084302 62 51 0.0 0.0 0.00 0.00 0.00 92 1014.7
20260902083303 62 9 0.0 1.0 0.00 0.00 0.00 92 1014.7
20260902082308 62 9 0.0 1.0 0.00 0.00 0.00 92 1014.7
20260902081303 62 31 0.0 1.0 0.00 0.00 0.00 92 1014.8
20260902080302 62 343 0.0 1.0 0.00 0.00 0.00 92 1014.8
20260902075324 62 9 0.0 1.0 0.00 0.00 0.00 91 1014.9
20260902074303 63 51 0.0 1.0 0.00 0.00 0.00 91 1014.7
20260902073303 63 265 0.0 0.0 0.00 0.00 0.00 91 1014.6
20260902072309 63 51 0.0 0.0 0.00 0.00 0.00 90 1014.5
20260902071302 64 265 0.0 1.0 0.00 0.00 0.00 89 1014.3
20260902070303 64 51 0.0 1.0 0.00 0.00 0.00 89 1014.3
20260902065323 64 9 0.0 1.0 0.00 0.00 0.00 88 1014.3
20260902064324 64 51 0.0 1.0 0.00 0.00 0.00 88 1014.3
20260902063303 65 68 0.0 1.0 0.00 0.00 0.00 87 1014.4
20260902062306 65 51 0.0 1.0 0.00 0.00 0.00 86 1014.3
20260902061324 65 51 0.0 0.0 0.00 0.00 0.00 85 1014.2
20260902060303 66 309 0.0 1.0 0.00 0.00 0.00 84 1014.2
20260902055306 66 51 0.0 1.0 0.00 0.00 0.00 83 1014.2
20260902054303 67 51 0.0 1.0 0.00 0.00 0.00 82 1014.1
20260902053302 68 52 0.0 1.0 0.00 0.00 0.00 81 1014.1
20260902052306 68 309 0.0 1.0 0.00 0.00 0.00 81 1014.1
20260902051303 68 48 0.0 2.0 0.00 0.00 0.00 80 1014.2
20260902050302 68 327 1.0 3.0 0.00 0.00 0.00 80 1014.1
20260902045306 68 312 1.0 4.0 0.00 0.00 0.00 80 1014.0
20260902044303 69 316 1.0 4.0 0.00 0.00 0.00 80 1013.9
20260902043303 69 325 1.0 3.0 0.00 0.00 0.00 81 1013.6
20260902042308 69 323 1.0 3.0 0.00 0.00 0.00 81 1013.5
20260902041303 69 319 1.0 3.0 0.00 0.00 0.00 81 1013.5
20260902040303 69 303 1.0 4.0 0.00 0.00 0.00 81 1013.2
20260902035324 69 331 1.0 4.0 0.00 0.00 0.00 81 1013.0
20260902034302 70 308 2.0 6.0 0.00 0.00 0.00 81 1012.9
20260902033303 70 307 2.0 5.0 0.00 0.00 0.00 80 1012.8
20260902032305 70 312 2.0 6.0 0.00 0.00 0.00 78 1012.7
20260902031302 71 305 2.0 5.0 0.00 0.00 0.00 77 1012.6
20260902030303 71 312 3.0 6.0 0.00 0.00 0.00 76 1012.5
20260902025306 71 303 2.0 5.0 0.00 0.00 0.00 75 1012.4
20260902024303 72 298 1.0 2.0 0.00 0.00 0.00 75 1012.2
20260902023324 73 345 0.0 3.0 0.00 0.00 0.00 73 1012.1
20260902021803 74 305 2.0 4.0 0.00 0.00 0.00 71 1012.1
20260902020803 74 297 3.0 6.0 0.00 0.00 0.00 70 1012.2
20260902015305 75 294 3.0 7.0 0.00 0.00 0.00 68 1012.2
20260902014303 76 306 3.0 10.0 0.00 0.00 0.00 65 1012.2
20260902013302 77 287 4.0 9.0 0.00 0.00 0.00 65 1012.2
20260902012308 77 289 4.0 8.0 0.00 0.00 0.00 64 1012.2
20260902011303 79 293 4.0 6.0 0.00 0.00 0.00 63 1012.2
20260902010303 78 300 3.0 9.0 0.00 0.00 0.00 63 1012.3
20260902005305 79 305 4.0 9.0 0.00 0.00 0.00 61 1012.3
20260902004302 80 281 3.0 7.0 0.00 0.00 0.00 61 1012.3
20260902003302 80 296 4.0 7.0 0.00 0.00 0.00 59 1012.4
20260902002306 82 302 3.0 7.0 0.00 0.00 0.00 58 1012.2
20260902001302 83 307 1.0 9.0 0.00 0.00 0.00 57 1012.3
20260902000304 84 274 3.0 6.0 0.00 0.00 0.00 55 1012.3
20260901235307 86 270 3.0 7.0 0.00 0.00 0.00 54 1012.4
20260901234302 87 259 3.0 7.0 0.00 0.00 0.00 53 1012.4
20260901233303 87 214 2.0 8.0 0.00 0.00 0.00 52 1012.4
20260901232306 87 204 2.0 7.0 0.00 0.00 0.00 53 1012.5
20260901231302 87 217 3.0 9.0 0.00 0.00 0.00 52 1012.4
20260901230303 87 185 2.0 6.0 0.00 0.00 0.00 49 1012.3
20260901225306 87 166 2.0 6.0 0.00 0.00 0.00 48 1012.4
20260901224324 86 183 1.0 6.0 0.00 0.00 0.00 48 1012.6
20260901223302 85 222 2.0 9.0 0.00 0.00 0.00 46 1012.8
20260901222306 84 219 3.0 6.0 0.00 0.00 0.00 53 1012.7
20260901221303 84 236 4.0 10.0 0.00 0.00 0.00 53 1012.9
20260901220303 84 226 2.0 7.0 0.00 0.00 0.00 55 1013.0
20260901215306 83 200 2.0 8.0 0.00 0.00 0.00 57 1013.2
20260901214302 83 225 3.0 9.0 0.00 0.00 0.00 60 1013.2
20260901213324 82 208 2.0 10.0 0.00 0.00 0.00 62 1013.4
20260901212305 83 230 4.0 9.0 0.00 0.00 0.00 61 1013.4
20260901211303 83 223 2.0 7.0 0.00 0.00 0.00 61 1013.5
20260901210323 82 224 3.0 10.0 0.00 0.00 0.00 62 1013.5
20260901205306 82 226 3.0 12.0 0.00 0.00 0.00 59 1013.6
20260901204324 82 232 4.0 6.0 0.00 0.00 0.00 61 1013.7
20260901203303 82 191 2.0 8.0 0.00 0.00 0.00 60 1013.7
20260901202306 82 224 3.0 9.0 0.00 0.00 0.00 63 1013.9
20260901201302 82 216 2.0 7.0 0.00 0.00 0.00 63 1014.0
20260901200303 82 222 3.0 7.0 0.00 0.00 0.00 65 1014.1
20260901195305 81 194 1.0 7.0 0.00 0.00 0.00 67 1014.2
20260901194303 81 247 3.0 7.0 0.00 0.00 0.00 67 1014.2
20260901193324 81 215 2.0 7.0 0.00 0.00 0.00 67 1014.3
20260901192324 81 206 2.0 7.0 0.00 0.00 0.00 68 1014.4
20260901191303 80 214 2.0 7.0 0.00 0.00 0.00 70 1014.5
20260901190302 80 234 3.0 7.0 0.00 0.00 0.00 69 1014.6
20260901185324 79 200 1.0 10.0 0.00 0.00 0.00 70 1014.7
20260901184303 80 237 2.0 5.0 0.00 0.00 0.00 69 1014.7
20260901183302 80 209 2.0 7.0 0.00 0.00 0.00 71 1014.7
20260901182305 79 241 2.0 9.0 0.00 0.00 0.00 71 1014.6
20260901181303 79 229 2.0 7.0 0.00 0.00 0.00 71 1014.7
20260901180303 79 222 2.0 6.0 0.00 0.00 0.00 71 1014.6
20260901175305 78 224 1.0 6.0 0.00 0.00 0.00 73 1014.6
20260901174303 77 224 2.0 6.0 0.00 0.00 0.00 73 1014.6
20260901173303 77 24 1.0 5.0 0.00 0.00 0.00 70 1014.7
20260901172323 76 254 2.0 5.0 0.00 0.00 0.00 72 1014.5
20260901171303 76 238 1.0 6.0 0.00 0.00 0.00 74 1014.6
20260901170324 76 292 2.0 5.0 0.00 0.00 0.00 73 1014.5
20260901165306 77 308 3.0 5.0 0.00 0.00 0.00 71 1014.4
20260901164303 77 193 1.0 3.0 0.00 0.00 0.00 73 1014.4
20260901163302 76 159 1.0 3.0 0.00 0.00 0.00 74 1014.4
20260901162306 75 92 0.0 2.0 0.00 0.00 0.00 74 1014.4
20260901161302 75 97 1.0 3.0 0.00 0.00 0.00 76 1014.4
20260901160345 74 257 1.0 3.0 0.00 0.00 0.00 77 1014.5
20260901155324 73 223 0.0 3.0 0.00 0.00 0.00 80 1014.5
20260901154302 73 175 1.0 3.0 0.00 0.00 0.00 81 1014.5
20260901153324 71 170 0.0 2.0 0.00 0.00 0.00 84 1014.3
20260901152305 70 79 1.0 3.0 0.00 0.00 0.00 88 1014.2
20260901151303 68 120 2.0 5.0 0.00 0.00 0.00 92 1014.3
20260901150302 66 124 1.0 3.0 0.00 0.00 0.00 95 1014.2
20260901145306 66 210 1.0 3.0 0.00 0.00 0.00 97 1014.0
20260901144302 65 355 1.0 1.0 0.00 0.00 0.00 96 1013.9
20260901143345 65 1 1.0 2.0 0.00 0.00 0.00 97 1014.0
20260901142305 65 123 0.0 2.0 0.00 0.00 0.00 98 1013.9
20260901141302 65 142 1.0 2.0 0.00 0.00 0.00 98 1013.9
20260901140303 64 12 0.0 1.0 0.00 0.00 0.00 98 1013.8
20260901135323 64 25 0.0 1.0 0.00 0.00 0.00 98 1013.6
20260901134303 64 178 0.0 1.0 0.00 0.00 0.00 98 1013.5
20260901133303 64 41 0.0 1.0 0.00 0.00 0.00 98 1013.5
20260901131303 64 9 0.0 0.0 0.00 0.00 0.00 98 1013.3
20260901130303 64 37 0.0 1.0 0.00 0.00 0.00 98 1013.3
20260901124303 64 319 0.0 1.0 0.00 0.00 0.00 99 1013.3
20260901123303 63 9 0.0 1.0 0.00 0.00 0.00 98 1013.3
20260901121302 63 308 0.0 1.0 0.00 0.00 0.00 98 1012.8
20260901120303 63 285 0.0 1.0 0.00 0.00 0.00 97 1012.9
20260901115306 63 309 0.0 1.0 0.00 0.00 0.00 97 1012.8
20260901114303 63 13 0.0 1.0 0.00 0.00 0.00 98 1012.8
20260901113302 63 9 0.0 1.0 0.00 0.00 0.00 98 1012.8
20260901111303 62 2 0.0 1.0 0.00 0.00 0.00 98 1013.0